This demonstration page uses our WeatherBlox Daily Observations layout. Learn more.

38.89511, -77.03637

Hourly Observations for March 24, 2015

Temp ( °F °C ) Dew Point ( °F °C ) Humidity (%) Winds ( mph kmh ) Pressure ( in mb ) Visibility ( mi km ) Precip ( " mm )
12:52 am 00:52 Cloudy 42 5.6 18 -7.8 38 38 E 3 6 30.27 1025 10 16.0934 0 0
1:52 am 01:52 Cloudy 42 5.6 18 -7.8 38 38 E 5 7 30.26 1025 10 16.0934 0 0
2:52 am 02:52 Cloudy 42 5.6 19 -7.2 40 40 ESE 6 9 30.26 1025 10 16.0934 0 0
3:52 am 03:52 Cloudy 42 5.6 20 -6.7 41 41 E 7 11 30.26 1025 10 16.0934 0 0
4:52 am 04:52 Cloudy 42 5.6 19 -7.2 40 40 ENE 8 13 30.27 1025 10 16.0934 0 0
5:52 am 05:52 Cloudy 41 5 22 -5.6 47 47 E 9 15 30.26 1025 10 16.0934 0 0
6:52 am 06:52 Cloudy 40 4.4 21 -6.1 47 47 ENE 8 13 30.28 1026 10 16.0934 0 0
7:52 am 07:52 Cloudy 40 4.4 20 -6.7 45 45 E 9 15 30.31 1026 10 16.0934 0 0
8:52 am 08:52 Cloudy 40 4.4 20 -6.7 45 45 ENE 8 13 30.32 1027 10 16.0934 0 0
9:52 am 09:52 Cloudy 40 4.4 18 -7.8 41 41 E 7 11 30.34 1027 10 16.0934 0 0
10:52 am 10:52 Cloudy 42 5.6 16 -8.9 35 35 ENE 8 13 30.35 1028 10 16.0934 0 0
11:52 am 11:52 Cloudy 43 6.1 17 -8.3 35 35 E 5 7 30.35 1028 10 16.0934 0 0
12:52 pm 12:52 Cloudy 44 6.7 17 -8.3 34 34 ENE 3 6 30.34 1027 10 16.0934 0 0
1:52 pm 13:52 Cloudy 45 7.2 18 -7.8 34 34 ENE 3 6 30.34 1027 10 16.0934 0 0
2:52 pm 14:52 Cloudy 46 7.8 17 -8.3 31 31 Calm 30.32 1027 10 16.0934 0 0
3:52 pm 15:52 Mostly Cloudy 47 8.3 19 -7.2 33 33 NE 5 7 30.33 1027 10 16.0934 0 0
4:52 pm 16:52 Mostly Cloudy 46 7.8 22 -5.6 38 38 ENE 9 15 30.33 1027 10 16.0934 0 0
5:52 pm 17:52 Mostly Cloudy 46 7.8 20 -6.7 35 35 E 7 11 30.34 1027 10 16.0934 0 0
6:52 pm 18:52 Partly Cloudy 46 7.8 19 -7.2 34 34 Calm 30.35 1028 10 16.0934 0 0
7:52 pm 19:52 Partly Cloudy 44 6.7 21 -6.1 40 40 E 8 13 30.37 1028 10 16.0934 0 0
8:52 pm 20:52 Partly Cloudy 42 5.6 21 -6.1 43 43 ESE 6 9 30.38 1029 10 16.0934 0 0
9:52 pm 21:52 Partly Cloudy 41 5 21 -6.1 45 45 E 6 9 30.39 1029 10 16.0934 0 0
10:52 pm 22:52 Mostly Cloudy 39 3.9 20 -6.7 46 46 E 3 6 30.4 1029 10 16.0934 0 0
11:52 pm 23:52 Mostly Cloudy 38 3.3 21 -6.1 51 51 ENE 6 9 30.4 1029 10 16.0934 0 0

Powered by AerisWeather